Regional Weather Roundup
Issued by NWS

Home | Current Version | Previous Version | Graphics & Text | Print | Product List | Glossary On
Versions: 1 2 3 4 5 6 7 8 9 10 11 12 13 14 15 16 17 18 19 20 21 22 23 24 25 26 27 28 29 30 31 32 33 34 35 36 37 38 39 40 41 42 43 44 45 46 47 48 49 50
000
ASUS43 KLSX 300107
RWRMO

WEATHER SUMMARY FOR MISSOURI
NATIONAL WEATHER SERVICE SPRINGFIELD MO
800 PM CDT SUN MAR 29 2015

NOTE: "FAIR" INDICATES FEW OR NO CLOUDS BELOW 12,000 FEET WITH NO
       SIGNIFICANT WEATHER AND/OR OBSTRUCTIONS TO VISIBILITY.
       CURRENT SKY AND/OR WEATHER CONDITIONS ARE NOT AVAILABLE FOR
       CHILLICOTHE AND FARMINGTON.

MOZ001>031-035>038-043-044-053-054-300200-
...NORTHERN AND WESTERN MISSOURI...

CITY           SKY/WX    TMP DP  RH WIND       PRES   REMARKS
KANSAS CTY INT CLEAR     53  37  54 N9        30.09R
KANSAS C DTWN  CLEAR     59  37  44 NW8       30.08R
LEE`S SUMMIT   CLEAR     57  38  48 N16       30.09R
ST JOSEPH      CLEAR     54  34  46 N9        30.10R
CHILLICOTHE      N/A     55  37  50 NW6       30.07R
KIRKSVILLE     CLEAR     53  37  54 W8        30.02R

$$
MOZ066>068-077>081-088>096-101>105-300200-
...SOUTHWEST MISSOURI...

CITY           SKY/WX    TMP DP  RH WIND       PRES   REMARKS
SPRINGFIELD    CLOUDY    51  42  71 SW6       30.06R
JOPLIN         MOCLDY    57  41  55 CALM      30.08R

$$
MOZ032>034-039>042-045>050-055>058-069>072-300200-
...CENTRAL MISSOURI...

CITY           SKY/WX    TMP DP  RH WIND       PRES   REMARKS
COLUMBIA       PTCLDY    51  41  68 SW9       30.01R
JEFFERSON CITY PTCLDY    57  41  55 W5        30.01R
ROLLA          PTCLDY    48  38  68 SW8       30.01R
SEDALIA        CLEAR     59  42  53 NW15      30.05R
WHITEMAN AFB   CLEAR     59  42  53 N18G24    30.04R
WARRENSBURG    CLEAR     57  41  54 NW12      30.06R
OSAGE BEACH    PTCLDY    55  37  50 SW3       30.03R

$$
MOZ051-052-059>065-300200-
...EAST CENTRAL MISSOURI...

CITY           SKY/WX    TMP DP  RH WIND       PRES   REMARKS
ST LOUIS INTL  MOCLDY    54  39  57 CALM      29.99R
SPIRIT OF STL  MOCLDY    49  39  68 CALM      29.98R
ST CHARLES     MOCLDY    51  38  60 SW5       29.98R

$$
MOZ072>076-082>087-097>100-106>115-300200-
...SOUTH CENTRAL AND SOUTHEAST MISSOURI...

CITY           SKY/WX    TMP DP  RH WIND       PRES   REMARKS
CAPE GIRARDEAU MOCLDY    55  47  74 S12       30.00F
FARMINGTON     CLOUDY    54  39  58 W5        30.05R
POPLAR BLUFF   MOCLDY    55  47  74 S8        30.02R
WEST PLAINS    CLOUDY    56  42  59 W6        30.07R

$$


USA.gov is the U.S. government's official web portal to all federal, state and local government web resources and services.